Flag for U.S.A. Weather past 2 weeks in Tuscaloosa, Alabama, U.S.A.

Now
79 °F

Passing clouds.


Feels Like: 82 °F
Forecast: 70 / 81 °F
Wind: 10 mph from Southwest

Location: Tuscaloosa Municipal Airport

Current Time: Jul 5, 2015 at 11:02:57 AM

Latest Report: Jul 5, 2015 at 10:04 AM


Visibility: 10 mi

Pressure: 30.13 "Hg

Humidity: 74%

Dew point: 70 °F

Location of TuscaloosaLocation

Historic Weather in Tuscaloosa — Graph

°F

Tuscaloosa temperature yesterday

Maximum temperature yesterday: 84 °F (at 12:53 PM)
Minimum temperature yesterday: 71 °F (at 11:53 PM)
Average temperature yesterday: 74 °F

Past Weeks' High & Low Weather Summary

 TemperatureHumidityPressure
High98 °F (Jun 24, 4:53 PM)97% (Jun 21, 12:53 AM)30.16 "Hg (Jun 21, 12:53 AM)
Low65 °F (Jun 29, 2:53 AM)35% (Jun 24, 3:53 PM)29.88 "Hg (Jun 27, 5:53 PM)
Average80 °F75%30.02 "Hg
* Reported Jun 20 9:53 AM — Jul 5 9:53 AM, Tuscaloosa, Weather by CustomWeather, © 2015

Note: Actual official high and low records may vary slightly from our data, if they occured in-between our weather recording intervals... More about our weather records

Advertising

Tuscaloosa weather history for previous 24 hours

 ConditionsComfort  
Time TempWeatherWind HumidityBarometerVisibility
9:53 AM
Sun, Jul 5
78 °FPartly sunny.9 mph76%30.12 "Hg10 mi
8:53 AM74 °FLow clouds.10 mph88%30.11 "Hg10 mi
7:53 AM72 °FLow clouds.8 mph93%30.13 "Hg8 mi
6:53 AM72 °FLow clouds.8 mph93%30.13 "Hg7 mi
5:53 AM71 °FLow clouds.8 mph93%30.11 "Hg8 mi
4:53 AM72 °FLow clouds.No wind91%30.09 "Hg8 mi
3:53 AM72 °FLow clouds.No wind91%30.08 "Hg9 mi
2:53 AM71 °FLow clouds.5 mph93%30.08 "Hg8 mi
1:53 AM71 °FLow clouds.8 mph93%30.07 "Hg8 mi
12:53 AM71 °FMostly cloudy.7 mph93%30.07 "Hg8 mi
11:53 PM
Sat, Jul 4
71 °FMostly cloudy.7 mph93%30.07 "Hg8 mi
10:53 PM72 °FLow clouds.7 mph91%30.06 "Hg8 mi
9:53 PM72 °FLow clouds.6 mph93%30.05 "Hg7 mi
8:53 PM72 °FOvercast.5 mph93%30.01 "Hg9 mi
7:53 PM72 °FOvercast.7 mph91%30.00 "Hg9 mi
6:53 PM72 °FOvercast.8 mph91%30.01 "Hg8 mi
6:03 PM72 °FPartly sunny.10 mph91%30.02 "Hg10 mi
5:53 PM72 °FScattered clouds.7 mph91%30.01 "Hg10 mi
4:53 PM72 °FLight rain. Partly sunny.9 mph93%29.98 "Hg7 mi
4:02 PM75 °FLight rain. Fog.12 mph94%29.98 "Hg6 mi
2:53 PM75 °FThunderstorms. Fog.3 mph90%30.03 "Hg4 mi
1:53 PM79 °FThundershowers. Partly sunny.6 mph79%30.04 "Hg7 mi
12:53 PM84 °FSunny.5 mph61%30.03 "Hg10 mi
11:53 AM83 °FSunny.5 mph63%30.05 "Hg10 mi
Weather by CustomWeather, © 2015

See weather overviewHow to use our weather pages